QPF
0.00 0.00 0.00 0.00 0.01 0.01 0.01 0.01 0.00 0.00 0.00 0.00 0.00 0.00 0.00 0.00 0.01 0.00 0.01 0.01 0.00 0.00 0.00 0.01 0.01 0.01 0.02 0.02 0.02 0.02 0.01 0.01 0.01 0.01 0.03 0.04 0.04 0.03 0.03 0.02 0.02 0.02 0.02 0.02 0.02 0.03 0.04 0.05 0.06
0.00 0.00 0.00 0.00 0.01 0.01 0.01 0.01 0.00 0.00 0.00 0.00 0.00 0.01 0.01 0.01 0.00 0.00 0.02 0.04 0.01 0.00 0.00 0.01 0.01 0.01 0.01 0.02 0.02 0.02 0.02 0.02 0.01 0.01 0.02 0.03 0.03 0.03 0.03 0.02 0.02 0.01 0.01 0.01 0.01 0.02 0.02 0.03 0.04
0.00 0.01 0.01 0.01 0.01 0.01 0.00 0.00 0.00 0.00 0.00 0.00 0.00 0.00 0.01 0.01 0.00 0.01 0.02 0.03 0.01 0.00 0.00 0.01 0.01 0.01 0.01 0.02 0.02 0.01 0.02 0.03 0.02 0.02 0.02 0.02 0.03 0.04 0.03 0.03 0.02 0.01 0.02 0.02 0.01 0.01 0.02 0.02 0.03
0.01 0.01 0.01 0.01 0.01 0.01 0.01 0.00 0.00 0.00 0.00 0.00 0.00 0.00 0.00 0.01 0.00 0.01 0.03 0.05 0.01 0.01 0.00 0.01 0.01 0.01 0.01 0.02 0.02 0.02 0.01 0.02 0.03 0.02 0.02 0.02 0.03 0.04 0.04 0.03 0.02 0.02 0.02 0.02 0.01 0.01 0.01 0.02 0.03
0.01 0.01 0.00 0.00 0.00 0.00 0.00 0.00 0.00 0.00 0.00 0.01 0.00 0.00 0.00 0.00 0.00 0.02 0.04 0.06 0.04 0.01 0.01 0.01 0.01 0.01 0.02 0.03 0.03 0.03 0.02 0.02 0.04 0.04 0.03 0.02 0.02 0.03 0.04 0.03 0.03 0.02 0.02 0.02 0.01 0.01 0.01 0.01 0.02
0.01 0.01 0.00 0.00 0.00 0.00 0.00 0.00 0.00 0.00 0.00 0.01 0.01 0.00 0.01 0.00 0.01 0.03 0.03 0.04 0.04 0.02 0.01 0.01 0.02 0.02 0.02 0.03 0.04 0.04 0.03 0.03 0.04 0.06 0.05 0.03 0.02 0.03 0.04 0.04 0.03 0.02 0.02 0.02 0.01 0.01 0.01 0.01 0.01
0.01 0.00 0.00 0.00 0.00 0.00 0.00 0.00 0.00 0.00 0.00 0.00 0.00 0.00 0.01 0.01 0.01 0.02 0.02 0.02 0.02 0.01 0.01 0.01 0.01 0.03 0.03 0.04 0.04 0.04 0.03 0.03 0.03 0.05 0.06 0.04 0.03 0.03 0.04 0.04 0.03 0.03 0.03 0.02 0.01 0.01 0.01 0.01 0.01
0.00 0.00 0.00 0.00 0.00 0.00 0.00 0.00 0.00 0.00 0.00 0.00 0.00 0.00 0.01 0.01 0.02 0.02 0.01 0.01 0.01 0.01 0.01 0.00 0.01 0.02 0.04 0.04 0.05 0.05 0.05 0.04 0.02 0.03 0.05 0.04 0.03 0.04 0.04 0.03 0.03 0.04 0.04 0.03 0.01 0.01 0.01 0.01 0.01
0.00 0.00 0.00 0.00 0.00 0.00 0.00 0.00 0.00 0.00 0.00 0.00 0.00 0.01 0.01 0.01 0.02 0.02 0.01 0.01 0.01 0.01 0.01 0.01 0.00 0.01 0.02 0.03 0.04 0.06 0.06 0.05 0.04 0.03 0.04 0.04 0.04 0.06 0.08 0.06 0.04 0.04 0.04 0.04 0.03 0.02 0.01 0.01 0.01
0.00 0.00 0.00 0.00 0.00 0.00 0.00 0.00 0.00 0.00 0.00 0.00 0.00 0.01 0.01 0.01 0.02 0.02 0.02 0.01 0.01 0.01 0.01 0.01 0.00 0.01 0.02 0.03 0.04 0.05 0.06 0.05 0.04 0.05 0.04 0.04 0.04 0.04 0.08 0.11 0.09 0.05 0.04 0.03 0.04 0.04 0.03 0.02 0.01
0.00 0.00 0.00 0.00 0.00 0.00 0.00 0.00 0.00 0.00 0.00 0.00 0.00 0.00 0.00 0.01 0.01 0.02 0.03 0.03 0.02 0.01 0.01 0.01 0.01 0.01 0.02 0.03 0.05 0.05 0.05 0.05 0.04 0.05 0.04 0.04 0.05 0.04 0.06 0.11 0.13 0.11 0.08 0.04 0.04 0.04 0.03 0.03 0.01
0.00 0.00 0.00 0.00 0.00 0.01 0.00 0.00 0.00 0.00 0.00 0.00 0.00 0.00 0.00 0.00 0.00 0.01 0.02 0.04 0.05 0.03 0.02 0.01 0.01 0.02 0.03 0.04 0.07 0.07 0.05 0.05 0.04 0.04 0.04 0.04 0.05 0.06 0.04 0.07 0.09 0.10 0.09 0.06 0.03 0.03 0.03 0.03 0.02
0.00 0.00 0.00 0.00 0.00 0.00 0.00 0.00 0.00 0.00 0.00 0.00 0.00 0.00 0.00 0.00 0.00 0.01 0.01 0.02 0.05 0.07 0.04 0.02 0.01 0.01 0.02 0.05 0.08 0.09 0.07 0.06 0.05 0.04 0.04 0.04 0.04 0.06 0.06 0.05 0.06 0.05 0.05 0.05 0.03 0.02 0.03 0.04 0.03
0.00 0.00 0.00 0.00 0.00 0.00 0.00 0.00 0.00 0.00 0.00 0.00 0.00 0.00 0.00 0.00 0.00 0.00 0.01 0.01 0.03 0.06 0.05 0.03 0.02 0.02 0.03 0.06 0.09 0.09 0.08 0.08 0.06 0.04 0.04 0.04 0.04 0.05 0.09 0.07 0.06 0.04 0.03 0.03 0.03 0.02 0.02 0.03 0.04
0.00 0.00 0.00 0.00 0.00 0.00 0.00 0.00 0.00 0.00 0.00 0.00 0.00 0.00 0.01 0.01 0.00 0.00 0.01 0.03 0.06 0.08 0.06 0.03 0.03 0.03 0.03 0.05 0.09 0.10 0.08 0.07 0.07 0.06 0.07 0.06 0.05 0.04 0.08 0.11 0.07 0.05 0.03 0.02 0.02 0.02 0.02 0.03 0.03
0.00 0.01 0.00 0.00 0.00 0.00 0.00 0.00 0.00 0.00 0.00 0.00 0.01 0.01 0.01 0.01 0.01 0.01 0.01 0.06 0.10 0.06 0.04 0.04 0.04 0.04 0.05 0.05 0.10 0.13 0.13 0.11 0.07 0.06 0.08 0.09 0.08 0.06 0.05 0.11 0.11 0.05 0.03 0.02 0.02 0.01 0.01 0.02 0.03
0.01 0.01 0.00 0.00 0.00 0.00 0.00 0.00 0.00 0.00 0.00 0.00 0.01 0.01 0.01 0.01 0.01 0.01 0.02 0.06 0.08 0.05 0.04 0.04 0.04 0.05 0.07 0.06 0.09 0.12 0.12 0.11 0.07 0.05 0.06 0.08 0.08 0.07 0.06 0.09 0.15 0.10 0.04 0.02 0.02 0.02 0.01 0.01 0.02
0.01 0.00 0.00 0.00 0.00 0.00 0.00 0.00 0.00 0.00 0.00 0.00 0.01 0.01 0.01 0.01 0.02 0.02 0.03 0.04 0.04 0.07 0.06 0.04 0.05 0.06 0.08 0.07 0.08 0.11 0.10 0.08 0.04 0.03 0.04 0.05 0.06 0.07 0.07 0.08 0.13 0.17 0.09 0.04 0.03 0.02 0.03 0.03 0.02
0.01 0.01 0.00 0.00 0.00 0.00 0.00 0.00 0.00 0.00 0.00 0.01 0.01 0.01 0.01 0.02 0.03 0.05 0.04 0.04 0.03 0.05 0.07 0.06 0.06 0.07 0.08 0.07 0.08 0.09 0.08 0.06 0.04 0.03 0.03 0.04 0.05 0.07 0.08 0.08 0.11 0.17 0.15 0.07 0.04 0.03 0.03 0.03 0.03
0.01 0.01 0.01 0.01 0.00 0.00 0.00 0.00 0.00 0.00 0.00 0.00 0.01 0.01 0.01 0.02 0.02 0.02 0.03 0.03 0.02 0.03 0.05 0.07 0.08 0.09 0.09 0.07 0.07 0.07 0.07 0.04 0.03 0.02 0.02 0.03 0.04 0.05 0.05 0.05 0.08 0.12 0.13 0.10 0.07 0.05 0.03 0.03 0.04
0.01 0.00 0.00 0.01 0.01 0.01 0.00 0.00 0.00 0.00 0.00 0.01 0.01 0.01 0.01 0.02 0.02 0.02 0.02 0.03 0.02 0.03 0.05 0.06 0.09 0.11 0.09 0.07 0.07 0.06 0.06 0.04 0.03 0.02 0.02 0.02 0.03 0.04 0.04 0.04 0.04 0.08 0.11 0.10 0.07 0.07 0.05 0.05 0.04
0.01 0.00 0.00 0.01 0.02 0.02 0.01 0.01 0.01 0.01 0.01 0.01 0.01 0.01 0.01 0.02 0.02 0.01 0.02 0.03 0.04 0.04 0.06 0.07 0.09 0.11 0.09 0.08 0.07 0.06 0.06 0.03 0.03 0.02 0.02 0.02 0.02 0.03 0.03 0.03 0.04 0.04 0.08 0.09 0.07 0.07 0.07 0.06 0.05
0.00 0.00 0.01 0.01 0.02 0.02 0.01 0.02 0.01 0.01 0.01 0.01 0.01 0.01 0.01 0.01 0.02 0.02 0.03 0.04 0.05 0.06 0.06 0.07 0.09 0.09 0.09 0.10 0.11 0.07 0.06 0.04 0.03 0.04 0.02 0.02 0.01 0.02 0.03 0.03 0.03 0.04 0.05 0.07 0.08 0.07 0.06 0.07 0.06
0.01 0.01 0.01 0.01 0.02 0.02 0.01 0.01 0.01 0.01 0.00 0.01 0.01 0.01 0.01 0.01 0.02 0.03 0.04 0.05 0.07 0.08 0.08 0.08 0.09 0.08 0.09 0.09 0.10 0.09 0.08 0.07 0.04 0.04 0.03 0.01 0.01 0.02 0.02 0.02 0.02 0.02 0.04 0.05 0.07 0.07 0.06 0.05 0.05
0.01 0.01 0.03 0.03 0.03 0.02 0.00 0.01 0.02 0.01 0.01 0.01 0.02 0.01 0.01 0.01 0.02 0.03 0.04 0.06 0.08 0.08 0.07 0.08 0.08 0.07 0.07 0.08 0.09 0.10 0.08 0.09 0.06 0.03 0.03 0.02 0.01 0.01 0.02 0.01 0.01 0.01 0.02 0.03 0.05 0.06 0.06 0.06 0.05
0.01 0.01 0.03 0.03 0.02 0.01 0.00 0.01 0.02 0.01 0.01 0.01 0.01 0.02 0.01 0.01 0.02 0.02 0.04 0.06 0.07 0.06 0.06 0.07 0.08 0.06 0.06 0.07 0.07 0.10 0.07 0.07 0.07 0.04 0.03 0.02 0.01 0.01 0.02 0.02 0.01 0.01 0.01 0.02 0.03 0.05 0.06 0.05 0.04
0.01 0.01 0.01 0.02 0.02 0.02 0.01 0.01 0.02 0.02 0.01 0.01 0.01 0.01 0.01 0.01 0.02 0.02 0.03 0.03 0.04 0.04 0.04 0.05 0.06 0.05 0.05 0.06 0.06 0.08 0.09 0.05 0.06 0.05 0.04 0.03 0.02 0.01 0.01 0.02 0.01 0.01 0.01 0.01 0.02 0.03 0.04 0.04 0.04
0.01 0.01 0.01 0.02 0.02 0.01 0.01 0.01 0.02 0.02 0.01 0.01 0.02 0.01 0.01 0.01 0.01 0.02 0.02 0.02 0.03 0.03 0.03 0.03 0.04 0.04 0.05 0.08 0.06 0.06 0.07 0.04 0.05 0.05 0.04 0.03 0.03 0.02 0.02 0.02 0.01 0.01 0.01 0.02 0.02 0.03 0.03 0.04 0.05
0.01 0.01 0.01 0.02 0.02 0.02 0.01 0.02 0.02 0.01 0.01 0.02 0.02 0.02 0.01 0.01 0.01 0.01 0.02 0.02 0.02 0.03 0.03 0.03 0.03 0.04 0.05 0.10 0.10 0.08 0.07 0.05 0.05 0.06 0.04 0.03 0.03 0.03 0.02 0.01 0.01 0.01 0.02 0.02 0.03 0.03 0.04 0.04 0.04
0.01 0.01 0.01 0.03 0.03 0.02 0.03 0.03 0.02 0.01 0.01 0.01 0.02 0.02 0.02 0.01 0.01 0.01 0.01 0.01 0.01 0.02 0.02 0.03 0.03 0.03 0.04 0.07 0.09 0.10 0.09 0.06 0.05 0.05 0.04 0.03 0.03 0.02 0.02 0.02 0.01 0.02 0.02 0.02 0.03 0.04 0.04 0.04 0.04
MSLP
1014.34 1014.49 1014.77 1015.08 1015.34 1015.45 1015.36 1015.02 1014.47 1013.78 1013.06 1012.43 1012.01 1011.86 1011.98 1012.34 1012.83 1013.30 1013.62 1013.68 1013.43 1012.87 1012.06 1011.12 1010.16 1009.29 1008.59 1008.08 1007.76 1007.59 1007.52 1007.51 1007.54 1007.60 1007.71 1007.89 1008.17 1008.55 1009.01 1009.53 1010.07 1010.60 1011.10 1011.55 1011.98 1012.39 1012.79 1013.21 1013.63
1014.76 1015.04 1015.39 1015.74 1015.97 1016.03 1015.84 1015.42 1014.82 1014.12 1013.45 1012.92 1012.62 1012.59 1012.83 1013.26 1013.77 1014.20 1014.44 1014.41 1014.05 1013.40 1012.53 1011.55 1010.58 1009.72 1009.02 1008.52 1008.20 1008.01 1007.92 1007.88 1007.86 1007.86 1007.91 1008.03 1008.23 1008.53 1008.92 1009.38 1009.89 1010.41 1010.92 1011.42 1011.89 1012.36 1012.82 1013.28 1013.74
1015.38 1015.76 1016.18 1016.53 1016.73 1016.72 1016.47 1016.01 1015.40 1014.75 1014.16 1013.75 1013.57 1013.64 1013.93 1014.35 1014.80 1015.13 1015.24 1015.07 1014.60 1013.88 1012.98 1012.00 1011.06 1010.24 1009.58 1009.10 1008.77 1008.57 1008.43 1008.33 1008.24 1008.16 1008.12 1008.15 1008.25 1008.46 1008.77 1009.18 1009.65 1010.16 1010.70 1011.24 1011.78 1012.31 1012.84 1013.35 1013.86
1016.14 1016.60 1017.04 1017.37 1017.52 1017.45 1017.15 1016.68 1016.11 1015.54 1015.06 1014.77 1014.70 1014.83 1015.12 1015.48 1015.81 1015.99 1015.94 1015.64 1015.08 1014.32 1013.43 1012.50 1011.63 1010.88 1010.27 1009.81 1009.48 1009.23 1009.02 1008.84 1008.66 1008.49 1008.35 1008.27 1008.29 1008.40 1008.64 1008.98 1009.42 1009.94 1010.50 1011.09 1011.69 1012.29 1012.88 1013.45 1014.00
1016.94 1017.43 1017.86 1018.13 1018.21 1018.08 1017.75 1017.29 1016.78 1016.32 1015.98 1015.81 1015.82 1015.99 1016.25 1016.51 1016.69 1016.70 1016.51 1016.10 1015.48 1014.73 1013.90 1013.06 1012.29 1011.62 1011.07 1010.62 1010.26 1009.95 1009.66 1009.38 1009.10 1008.84 1008.61 1008.45 1008.37 1008.41 1008.57 1008.87 1009.27 1009.78 1010.36 1010.99 1011.65 1012.31 1012.96 1013.57 1014.15
1017.65 1018.12 1018.48 1018.68 1018.67 1018.47 1018.12 1017.70 1017.28 1016.94 1016.74 1016.69 1016.78 1016.96 1017.16 1017.31 1017.35 1017.21 1016.90 1016.42 1015.80 1015.10 1014.37 1013.66 1013.01 1012.43 1011.92 1011.47 1011.06 1010.68 1010.30 1009.92 1009.56 1009.22 1008.92 1008.69 1008.55 1008.53 1008.63 1008.86 1009.23 1009.72 1010.31 1010.97 1011.66 1012.37 1013.06 1013.70 1014.30
1018.15 1018.55 1018.82 1018.90 1018.80 1018.54 1018.18 1017.81 1017.49 1017.28 1017.22 1017.29 1017.45 1017.63 1017.78 1017.83 1017.74 1017.49 1017.10 1016.60 1016.02 1015.42 1014.82 1014.26 1013.72 1013.23 1012.75 1012.28 1011.82 1011.35 1010.88 1010.43 1010.00 1009.61 1009.27 1009.01 1008.83 1008.75 1008.80 1008.98 1009.30 1009.75 1010.32 1010.99 1011.71 1012.45 1013.16 1013.83 1014.44
1018.41 1018.71 1018.86 1018.82 1018.61 1018.29 1017.93 1017.61 1017.39 1017.33 1017.40 1017.58 1017.80 1018.00 1018.10 1018.07 1017.89 1017.57 1017.15 1016.67 1016.17 1015.68 1015.23 1014.80 1014.37 1013.94 1013.48 1012.98 1012.45 1011.91 1011.37 1010.87 1010.41 1010.00 1009.66 1009.38 1009.18 1009.07 1009.06 1009.17 1009.42 1009.82 1010.36 1011.02 1011.75 1012.51 1013.25 1013.94 1014.55
1018.47 1018.66 1018.67 1018.51 1018.20 1017.82 1017.45 1017.18 1017.07 1017.12 1017.32 1017.60 1017.88 1018.10 1018.18 1018.10 1017.86 1017.51 1017.08 1016.65 1016.24 1015.88 1015.55 1015.23 1014.90 1014.51 1014.04 1013.51 1012.92 1012.32 1011.74 1011.21 1010.75 1010.37 1010.05 1009.78 1009.57 1009.42 1009.34 1009.38 1009.55 1009.88 1010.38 1011.01 1011.75 1012.53 1013.31 1014.03 1014.66
1018.47 1018.54 1018.42 1018.13 1017.72 1017.28 1016.90 1016.67 1016.63 1016.79 1017.09 1017.45 1017.79 1018.03 1018.10 1018.00 1017.74 1017.37 1016.97 1016.59 1016.26 1016.00 1015.77 1015.54 1015.26 1014.89 1014.41 1013.84 1013.21 1012.58 1011.98 1011.46 1011.03 1010.69 1010.41 1010.16 1009.95 1009.75 1009.61 1009.56 1009.64 1009.89 1010.32 1010.93 1011.67 1012.49 1013.32 1014.09 1014.76
1018.59 1018.54 1018.29 1017.88 1017.36 1016.85 1016.45 1016.23 1016.23 1016.46 1016.83 1017.27 1017.65 1017.91 1017.99 1017.88 1017.61 1017.24 1016.86 1016.52 1016.25 1016.06 1015.89 1015.71 1015.45 1015.08 1014.58 1013.98 1013.33 1012.69 1012.10 1011.62 1011.24 1010.95 1010.71 1010.49 1010.27 1010.03 1009.81 1009.66 1009.64 1009.80 1010.18 1010.77 1011.53 1012.40 1013.29 1014.13 1014.87
1018.96 1018.81 1018.45 1017.91 1017.28 1016.69 1016.23 1015.99 1016.00 1016.26 1016.67 1017.15 1017.56 1017.84 1017.93 1017.81 1017.54 1017.18 1016.80 1016.48 1016.23 1016.05 1015.91 1015.73 1015.47 1015.09 1014.57 1013.97 1013.31 1012.69 1012.14 1011.70 1011.38 1011.15 1010.96 1010.75 1010.51 1010.22 1009.92 1009.67 1009.56 1009.64 1009.97 1010.54 1011.33 1012.26 1013.23 1014.17 1014.99
1019.66 1019.43 1018.95 1018.29 1017.55 1016.86 1016.32 1016.03 1016.01 1016.26 1016.68 1017.16 1017.59 1017.88 1017.97 1017.85 1017.57 1017.20 1016.81 1016.46 1016.20 1016.00 1015.83 1015.63 1015.35 1014.95 1014.44 1013.84 1013.21 1012.62 1012.12 1011.74 1011.48 1011.30 1011.13 1010.93 1010.65 1010.31 1009.94 1009.61 1009.41 1009.42 1009.71 1010.28 1011.10 1012.09 1013.15 1014.19 1015.10
1020.66 1020.35 1019.77 1019.00 1018.15 1017.35 1016.71 1016.34 1016.27 1016.47 1016.87 1017.34 1017.76 1018.05 1018.13 1018.01 1017.71 1017.30 1016.87 1016.47 1016.15 1015.89 1015.67 1015.43 1015.12 1014.72 1014.21 1013.65 1013.06 1012.53 1012.09 1011.76 1011.55 1011.39 1011.23 1011.01 1010.70 1010.31 1009.87 1009.47 1009.21 1009.18 1009.44 1010.01 1010.86 1011.92 1013.06 1014.19 1015.20
1021.79 1021.42 1020.76 1019.90 1018.95 1018.04 1017.32 1016.86 1016.71 1016.85 1017.19 1017.63 1018.04 1018.31 1018.38 1018.24 1017.92 1017.47 1016.97 1016.50 1016.09 1015.74 1015.45 1015.15 1014.82 1014.42 1013.95 1013.43 1012.92 1012.45 1012.06 1011.78 1011.58 1011.42 1011.25 1011.00 1010.66 1010.22 1009.74 1009.30 1009.01 1008.95 1009.20 1009.78 1010.65 1011.75 1012.96 1014.17 1015.26
1022.86 1022.44 1021.72 1020.79 1019.77 1018.79 1017.99 1017.46 1017.23 1017.30 1017.59 1017.98 1018.36 1018.62 1018.68 1018.52 1018.16 1017.65 1017.08 1016.51 1016.00 1015.56 1015.18 1014.83 1014.48 1014.10 1013.68 1013.23 1012.78 1012.38 1012.04 1011.77 1011.57 1011.39 1011.18 1010.89 1010.51 1010.05 1009.54 1009.09 1008.79 1008.74 1008.99 1009.58 1010.47 1011.60 1012.85 1014.11 1015.26
1023.66 1023.20 1022.46 1021.51 1020.47 1019.47 1018.63 1018.05 1017.76 1017.77 1018.00 1018.34 1018.68 1018.91 1018.96 1018.78 1018.38 1017.82 1017.17 1016.51 1015.89 1015.35 1014.89 1014.49 1014.13 1013.78 1013.41 1013.04 1012.67 1012.32 1012.01 1011.75 1011.52 1011.28 1011.02 1010.68 1010.26 1009.78 1009.28 1008.85 1008.57 1008.54 1008.82 1009.42 1010.32 1011.46 1012.73 1014.02 1015.21
1024.08 1023.61 1022.89 1021.97 1020.97 1020.00 1019.17 1018.57 1018.24 1018.20 1018.36 1018.65 1018.95 1019.15 1019.18 1018.98 1018.55 1017.95 1017.23 1016.48 1015.76 1015.13 1014.59 1014.15 1013.79 1013.46 1013.16 1012.85 1012.55 1012.25 1011.95 1011.67 1011.39 1011.09 1010.75 1010.36 1009.91 1009.42 1008.95 1008.56 1008.34 1008.36 1008.67 1009.29 1010.20 1011.33 1012.60 1013.90 1015.12
1024.11 1023.67 1023.01 1022.20 1021.30 1020.41 1019.63 1019.04 1018.68 1018.58 1018.67 1018.89 1019.13 1019.29 1019.29 1019.08 1018.64 1018.00 1017.24 1016.42 1015.62 1014.91 1014.30 1013.82 1013.45 1013.16 1012.91 1012.67 1012.42 1012.15 1011.86 1011.54 1011.19 1010.81 1010.40 1009.94 1009.47 1008.99 1008.56 1008.24 1008.09 1008.17 1008.54 1009.18 1010.10 1011.22 1012.48 1013.77 1015.00
1023.89 1023.51 1022.98 1022.31 1021.56 1020.80 1020.09 1019.52 1019.12 1018.94 1018.93 1019.05 1019.21 1019.31 1019.28 1019.06 1018.61 1017.97 1017.19 1016.33 1015.48 1014.70 1014.04 1013.52 1013.14 1012.86 1012.65 1012.46 1012.25 1012.01 1011.71 1011.35 1010.94 1010.48 1009.99 1009.48 1008.97 1008.51 1008.12 1007.88 1007.82 1007.98 1008.40 1009.08 1010.01 1011.12 1012.35 1013.63 1014.86
1023.64 1023.37 1023.00 1022.53 1021.95 1021.32 1020.68 1020.10 1019.63 1019.32 1019.16 1019.13 1019.16 1019.18 1019.11 1018.87 1018.45 1017.83 1017.05 1016.18 1015.30 1014.48 1013.77 1013.22 1012.82 1012.55 1012.36 1012.20 1012.03 1011.81 1011.51 1011.12 1010.65 1010.12 1009.56 1009.00 1008.48 1008.03 1007.69 1007.51 1007.53 1007.78 1008.26 1008.98 1009.92 1011.02 1012.24 1013.49 1014.71
1023.63 1023.51 1023.34 1023.06 1022.66 1022.13 1021.51 1020.86 1020.25 1019.74 1019.37 1019.12 1018.98 1018.88 1018.75 1018.51 1018.11 1017.53 1016.80 1015.96 1015.08 1014.23 1013.49 1012.90 1012.48 1012.20 1012.02 1011.89 1011.75 1011.55 1011.26 1010.86 1010.36 1009.78 1009.17 1008.58 1008.03 1007.59 1007.29 1007.18 1007.27 1007.58 1008.12 1008.87 1009.82 1010.91 1012.11 1013.34 1014.55
1024.05 1024.12 1024.15 1024.06 1023.78 1023.31 1022.64 1021.85 1021.01 1020.23 1019.55 1019.04 1018.67 1018.41 1018.20 1017.95 1017.59 1017.08 1016.41 1015.62 1014.77 1013.93 1013.16 1012.54 1012.08 1011.79 1011.61 1011.50 1011.39 1011.23 1010.96 1010.58 1010.07 1009.49 1008.86 1008.23 1007.68 1007.24 1006.96 1006.89 1007.03 1007.39 1007.97 1008.75 1009.70 1010.78 1011.95 1013.15 1014.34
1024.99 1025.26 1025.49 1025.55 1025.35 1024.85 1024.06 1023.03 1021.89 1020.74 1019.71 1018.86 1018.22 1017.78 1017.46 1017.19 1016.88 1016.45 1015.87 1015.16 1014.35 1013.52 1012.75 1012.09 1011.60 1011.28 1011.10 1011.01 1010.94 1010.82 1010.61 1010.27 1009.81 1009.23 1008.61 1007.98 1007.42 1006.98 1006.71 1006.65 1006.82 1007.20 1007.80 1008.59 1009.54 1010.61 1011.75 1012.91 1014.06
1026.40 1026.88 1027.27 1027.43 1027.25 1026.65 1025.65 1024.32 1022.80 1021.25 1019.80 1018.59 1017.66 1017.00 1016.58 1016.28 1016.00 1015.66 1015.18 1014.55 1013.80 1013.00 1012.22 1011.54 1011.02 1010.67 1010.48 1010.40 1010.38 1010.32 1010.19 1009.92 1009.52 1009.00 1008.40 1007.79 1007.23 1006.79 1006.52 1006.46 1006.62 1007.01 1007.62 1008.40 1009.34 1010.38 1011.49 1012.61 1013.72
1028.12 1028.78 1029.31 1029.52 1029.27 1028.52 1027.26 1025.59 1023.67 1021.68 1019.83 1018.24 1017.01 1016.15 1015.60 1015.27 1015.03 1014.75 1014.36 1013.82 1013.14 1012.36 1011.59 1010.88 1010.32 1009.95 1009.75 1009.69 1009.70 1009.72 1009.67 1009.49 1009.17 1008.72 1008.18 1007.60 1007.06 1006.62 1006.34 1006.27 1006.42 1006.81 1007.40 1008.18 1009.10 1010.11 1011.18 1012.26 1013.31
1029.90 1030.72 1031.33 1031.53 1031.18 1030.23 1028.69 1026.68 1024.38 1022.00 1019.77 1017.85 1016.35 1015.29 1014.63 1014.25 1014.02 1013.80 1013.48 1013.01 1012.37 1011.63 1010.85 1010.13 1009.54 1009.14 1008.93 1008.88 1008.93 1009.01 1009.04 1008.95 1008.72 1008.35 1007.87 1007.33 1006.81 1006.39 1006.11 1006.04 1006.18 1006.56 1007.15 1007.92 1008.82 1009.82 1010.86 1011.90 1012.90
1031.50 1032.43 1033.06 1033.21 1032.74 1031.59 1029.79 1027.49 1024.87 1022.18 1019.64 1017.46 1015.74 1014.52 1013.75 1013.31 1013.07 1012.87 1012.59 1012.15 1011.55 1010.83 1010.05 1009.31 1008.70 1008.28 1008.05 1008.01 1008.08 1008.20 1008.29 1008.28 1008.12 1007.82 1007.41 1006.92 1006.45 1006.05 1005.79 1005.73 1005.89 1006.28 1006.88 1007.66 1008.56 1009.55 1010.57 1011.57 1012.53
1032.72 1033.69 1034.30 1034.36 1033.74 1032.42 1030.43 1027.92 1025.09 1022.20 1019.47 1017.12 1015.25 1013.91 1013.04 1012.53 1012.25 1012.02 1011.74 1011.31 1010.71 1009.99 1009.22 1008.47 1007.85 1007.41 1007.17 1007.11 1007.19 1007.33 1007.44 1007.47 1007.37 1007.12 1006.76 1006.34 1005.91 1005.57 1005.35 1005.34 1005.55 1005.98 1006.62 1007.43 1008.36 1009.36 1010.37 1011.35 1012.28
1033.47 1034.41 1034.93 1034.87 1034.13 1032.67 1030.56 1027.95 1025.04 1022.08 1019.29 1016.87 1014.93 1013.50 1012.54 1011.95 1011.58 1011.28 1010.94 1010.48 1009.87 1009.14 1008.36 1007.62 1007.00 1006.55 1006.31 1006.24 1006.30 1006.43 1006.54 1006.57 1006.49 1006.28 1005.96 1005.59 1005.24 1004.96 1004.83 1004.90 1005.19 1005.71 1006.42 1007.29 1008.26 1009.29 1010.32 1011.31 1012.22
Thickness
5713 5715 5716 5709 5690 5672 5672 5684 5695 5700 5703 5709 5711 5708 5703 5698 5697 5691 5697 5703 5704 5704 5704 5704 5705 5706 5706 5708 5709 5710 5711 5712 5713 5714 5715 5716 5717 5718 5719 5719 5720 5720 5721 5721 5721 5721 5721 5721 5721
5708 5710 5704 5691 5672 5660 5668 5682 5689 5697 5702 5705 5705 5701 5695 5692 5695 5694 5693 5696 5697 5698 5698 5698 5699 5700 5701 5702 5703 5704 5705 5707 5708 5709 5710 5711 5712 5713 5714 5714 5715 5715 5716 5716 5716 5716 5716 5716 5716
5703 5702 5688 5674 5664 5662 5672 5684 5687 5694 5699 5699 5694 5692 5688 5686 5688 5688 5689 5691 5691 5690 5690 5691 5692 5693 5694 5695 5697 5698 5699 5701 5702 5703 5705 5706 5707 5708 5709 5709 5710 5710 5710 5711 5711 5711 5711 5711 5711
5694 5686 5677 5664 5662 5669 5677 5682 5685 5688 5691 5690 5686 5679 5679 5681 5682 5684 5685 5685 5683 5682 5682 5683 5685 5685 5686 5688 5689 5691 5693 5694 5696 5697 5699 5700 5701 5702 5703 5704 5704 5704 5705 5705 5705 5706 5706 5706 5706
5684 5673 5662 5653 5659 5668 5675 5678 5680 5679 5679 5679 5677 5670 5669 5673 5677 5678 5677 5677 5675 5674 5674 5675 5677 5678 5679 5680 5682 5684 5686 5687 5689 5691 5692 5694 5695 5696 5697 5698 5698 5699 5699 5699 5700 5700 5701 5701 5702
5668 5661 5648 5645 5654 5664 5669 5673 5673 5671 5670 5671 5668 5662 5661 5665 5667 5668 5669 5668 5667 5667 5667 5667 5668 5670 5671 5673 5674 5676 5678 5680 5682 5684 5685 5687 5689 5690 5691 5692 5693 5693 5694 5694 5694 5695 5695 5696 5697
5657 5649 5645 5647 5649 5655 5663 5666 5663 5661 5661 5662 5662 5654 5653 5656 5659 5660 5660 5659 5659 5659 5659 5659 5660 5661 5663 5665 5666 5668 5670 5673 5674 5676 5678 5680 5681 5683 5685 5686 5686 5687 5688 5688 5688 5689 5689 5690 5691
5653 5644 5643 5641 5644 5648 5656 5657 5657 5655 5655 5658 5656 5646 5645 5649 5651 5651 5650 5649 5650 5650 5651 5651 5652 5653 5654 5656 5657 5659 5662 5664 5666 5668 5669 5672 5673 5675 5677 5679 5680 5681 5682 5682 5682 5682 5683 5684 5684
5649 5632 5631 5638 5640 5642 5647 5646 5647 5650 5648 5647 5646 5644 5644 5645 5643 5641 5640 5638 5639 5640 5642 5643 5643 5644 5646 5647 5649 5651 5653 5655 5658 5660 5661 5663 5665 5667 5670 5672 5673 5674 5675 5675 5675 5676 5676 5677 5677
5633 5621 5629 5637 5637 5636 5638 5638 5637 5638 5635 5634 5634 5635 5636 5635 5633 5631 5630 5629 5629 5631 5633 5634 5635 5635 5637 5638 5640 5642 5644 5646 5649 5651 5653 5655 5657 5659 5662 5664 5666 5667 5667 5668 5668 5668 5669 5669 5670
5626 5620 5625 5629 5631 5631 5630 5629 5629 5628 5625 5626 5626 5626 5626 5625 5623 5622 5622 5621 5621 5622 5624 5625 5626 5627 5628 5629 5632 5633 5635 5638 5641 5643 5645 5647 5649 5651 5653 5655 5657 5658 5658 5659 5660 5660 5661 5661 5662
5618 5618 5620 5621 5623 5623 5621 5621 5619 5619 5621 5623 5621 5619 5618 5616 5614 5614 5614 5614 5614 5614 5615 5616 5618 5619 5620 5621 5623 5624 5627 5629 5632 5635 5637 5639 5640 5642 5643 5645 5647 5648 5649 5651 5651 5652 5652 5653 5654
5609 5609 5611 5612 5612 5613 5613 5612 5611 5612 5614 5613 5612 5611 5608 5607 5607 5606 5606 5606 5606 5606 5607 5607 5609 5610 5611 5612 5614 5616 5618 5621 5624 5627 5628 5630 5631 5633 5634 5635 5637 5639 5640 5641 5642 5643 5643 5644 5645
5602 5601 5601 5602 5603 5605 5603 5602 5602 5606 5606 5604 5604 5602 5600 5600 5599 5599 5598 5598 5598 5598 5599 5599 5600 5601 5602 5603 5605 5607 5610 5613 5615 5618 5619 5621 5622 5623 5624 5626 5627 5629 5630 5631 5632 5633 5634 5635 5636
5595 5590 5590 5593 5594 5595 5593 5591 5595 5599 5597 5595 5594 5594 5593 5592 5591 5591 5591 5590 5590 5590 5590 5590 5591 5592 5593 5594 5596 5599 5602 5603 5606 5608 5610 5612 5613 5614 5615 5616 5617 5619 5620 5621 5623 5624 5624 5625 5626
5582 5576 5573 5584 5586 5586 5582 5580 5592 5591 5588 5586 5585 5584 5583 5583 5583 5583 5583 5582 5582 5582 5581 5582 5583 5583 5584 5585 5587 5590 5592 5594 5596 5599 5601 5603 5604 5604 5606 5607 5608 5609 5610 5611 5612 5613 5614 5614 5615
5564 5559 5564 5572 5579 5577 5572 5573 5583 5582 5580 5578 5577 5576 5575 5574 5575 5575 5575 5575 5574 5573 5573 5573 5572 5572 5573 5575 5578 5581 5583 5584 5587 5590 5592 5593 5594 5595 5596 5597 5599 5600 5600 5600 5601 5602 5603 5604 5605
5556 5555 5558 5562 5569 5567 5562 5566 5574 5573 5572 5570 5569 5568 5567 5568 5569 5568 5568 5567 5566 5565 5565 5564 5564 5563 5564 5566 5569 5572 5573 5575 5577 5579 5582 5584 5584 5586 5587 5588 5589 5589 5590 5590 5590 5591 5592 5593 5595
5557 5554 5552 5557 5563 5559 5557 5560 5566 5566 5564 5562 5561 5560 5561 5561 5562 5561 5560 5558 5557 5556 5556 5556 5556 5556 5556 5557 5560 5561 5563 5565 5567 5569 5572 5574 5575 5577 5578 5579 5579 5579 5579 5579 5580 5581 5582 5582 5584
5551 5547 5546 5551 5555 5553 5550 5554 5559 5560 5559 5559 5557 5555 5555 5554 5553 5553 5552 5549 5548 5548 5548 5549 5549 5549 5549 5550 5552 5553 5554 5555 5558 5560 5563 5565 5566 5567 5569 5569 5570 5570 5570 5570 5570 5571 5571 5572 5573
5545 5542 5542 5542 5544 5543 5540 5544 5549 5555 5556 5556 5555 5553 5550 5549 5547 5546 5544 5542 5541 5541 5541 5543 5542 5541 5541 5542 5543 5543 5543 5546 5547 5550 5553 5555 5556 5558 5559 5560 5561 5561 5561 5561 5561 5561 5561 5561 5561
5537 5543 5541 5538 5528 5524 5529 5525 5541 5544 5547 5549 5548 5544 5543 5542 5541 5540 5538 5537 5535 5535 5535 5534 5534 5533 5533 5533 5532 5533 5533 5535 5538 5541 5543 5545 5547 5548 5550 5551 5552 5553 5553 5552 5552 5552 5552 5551 5551
5533 5537 5534 5530 5522 5517 5519 5513 5530 5536 5537 5541 5541 5539 5538 5536 5535 5534 5533 5532 5530 5528 5527 5526 5525 5525 5524 5524 5523 5524 5525 5526 5528 5531 5533 5534 5536 5538 5540 5541 5543 5544 5544 5544 5543 5543 5542 5542 5542
5528 5526 5522 5512 5506 5507 5514 5508 5520 5526 5533 5536 5537 5535 5533 5531 5529 5528 5527 5525 5523 5521 5519 5517 5516 5516 5516 5515 5514 5515 5516 5517 5519 5521 5523 5525 5527 5529 5531 5533 5534 5535 5536 5536 5535 5535 5534 5533 5534
5517 5509 5500 5496 5492 5501 5508 5507 5520 5532 5533 5532 5532 5528 5526 5524 5522 5520 5519 5517 5515 5513 5511 5510 5509 5509 5508 5508 5507 5507 5508 5509 5511 5513 5514 5516 5518 5520 5522 5524 5525 5526 5527 5527 5528 5527 5526 5525 5525
5508 5505 5493 5490 5487 5494 5501 5503 5521 5529 5528 5527 5525 5522 5519 5517 5515 5514 5512 5510 5507 5505 5504 5502 5502 5502 5501 5501 5501 5500 5501 5502 5503 5505 5506 5508 5510 5512 5513 5515 5516 5517 5518 5519 5520 5519 5519 5518 5518
5503 5496 5497 5483 5478 5481 5491 5499 5515 5524 5522 5520 5518 5514 5511 5510 5508 5507 5506 5503 5501 5498 5496 5495 5495 5495 5494 5494 5495 5494 5494 5495 5497 5498 5498 5500 5502 5504 5505 5506 5507 5508 5510 5511 5512 5512 5512 5511 5511
5499 5492 5480 5476 5478 5481 5491 5492 5504 5513 5512 5513 5510 5507 5505 5503 5501 5499 5498 5496 5494 5491 5490 5489 5488 5488 5488 5488 5488 5489 5489 5490 5490 5491 5491 5492 5493 5494 5495 5497 5498 5500 5502 5503 5503 5504 5505 5504 5504
5489 5485 5480 5471 5470 5473 5477 5496 5510 5507 5507 5505 5504 5501 5497 5496 5494 5492 5489 5488 5486 5484 5483 5482 5482 5482 5483 5483 5483 5482 5483 5484 5484 5484 5485 5485 5486 5486 5487 5488 5490 5492 5493 5494 5495 5497 5497 5497 5497
5486 5481 5472 5469 5466 5460 5463 5487 5508 5504 5502 5500 5497 5494 5491 5489 5487 5485 5482 5480 5478 5477 5477 5476 5476 5477 5478 5478 5477 5477 5477 5477 5477 5478 5479 5479 5479 5479 5480 5480 5482 5484 5485 5486 5488 5489 5490 5490 5490